EW1152 Weather Reports


time (UTC)temp
C
wind
direction
speed
KPH
gust
KPH
rain 1hr
cm
rain 24hr
cm
rain mn
cm
humidity
%
barometer
mb
20260507075850 11 5 1.6 8.0 0.10 0.25 0.10 57 1006.6
20260507075349 11 272 1.6 11.3 0.08 0.23 0.08 57 1007.1
20260507075109 11 268 3.2 11.3 0.08 0.23 0.08 57 1007.0
20260507074347 11 304 3.2 11.3 0.08 0.23 0.08 57 1006.9
20260507073841 11 255 1.6 8.0 0.08 0.23 0.08 57 1006.9
20260507073342 11 175 3.2 14.5 0.03 0.18 0.05 57 1006.3
20260507072829 11 259 6.4 17.7 0.03 0.18 0.03 57 1006.9
20260507072328 11 231 6.4 17.7 0.03 0.18 0.03 57 1006.7
20260507072052 11 302 4.8 16.1 0.00 0.15 0.00 57 1006.1
20260507071329 12 282 3.2 14.5 0.00 0.15 0.00 57 1006.0
20260507071304 12 274 3.2 9.7 0.00 0.15 0.00 58 1005.8
20260507070319 12 260 3.2 12.9 0.00 0.15 0.00 58 1005.6
20260507065820 12 338 6.4 20.9 0.00 0.15 0.00 58 1005.4
20260507065320 12 311 6.4 20.9 0.00 0.15 0.00 58 1005.6
20260507064816 12 275 4.8 16.1 0.00 0.15 0.00 59 1005.8
20260507064315 12 274 4.8 19.3 0.00 0.15 0.00 59 1005.7
20260507063815 12 291 4.8 19.3 0.00 0.15 0.00 59 1005.7
20260507063317 13 299 3.2 9.7 0.00 0.15 0.00 59 1005.9
20260507062814 13 233 3.2 14.5 0.00 0.15 0.00 59 1005.9
20260507062314 13 262 4.8 14.5 0.00 0.15 0.00 59 1005.9
20260507061817 13 342 3.2 14.5 0.00 0.15 0.00 59 1005.8
20260507061315 13 311 1.6 6.4 0.00 0.15 0.00 59 1005.9
20260507060813 13 298 1.6 6.4 0.00 0.15 0.00 59 1005.8
20260507060315 13 316 1.6 8.0 0.00 0.15 0.00 59 1005.8
20260507060300 13 241 3.2 9.7 0.00 0.15 0.00 59 1005.8
20260507055305 13 311 4.8 9.7 0.00 0.15 0.00 59 1005.9
20260507055025 13 274 3.2 9.7 0.00 0.15 0.00 59 1006.0
20260507054257 13 319 4.8 16.1 0.00 0.15 0.00 60 1006.1
20260507053757 13 326 4.8 16.1 0.00 0.15 0.00 60 1006.0
20260507053250 13 327 3.2 14.5 0.00 0.15 0.00 60 1006.1
20260507052749 14 315 3.2 9.7 0.00 0.15 0.00 60 1006.0
20260507052249 14 327 1.6 9.7 0.00 0.15 0.00 60 1006.3
20260507051751 14 341 0.0 4.8 0.00 0.15 0.00 60 1006.2
20260507051247 14 284 1.6 6.4 0.00 0.15 0.00 60 1006.2
20260507050704 14 305 1.6 6.4 0.00 0.15 0.00 60 1006.3
20260507050143 14 327 0.0 4.8 0.00 0.15 0.00 61 1006.0
20260507045643 14 269 1.6 6.4 0.00 0.15 0.00 61 1006.1
20260507045122 15 326 1.6 6.4 0.00 0.15 0.00 61 1006.0
20260507044616 15 290 1.6 8.0 0.03 0.15 0.00 61 1006.2
20260507044343 15 263 1.6 8.0 0.03 0.15 0.00 61 1006.0
20260507043615 15 301 0.0 4.8 0.03 0.15 0.00 61 1005.9
20260507043118 15 310 0.0 3.2 0.03 0.15 0.00 61 1005.9
20260507042837 15 269 0.0 1.6 0.03 0.15 0.00 61 1006.0
20260507042112 15 269 1.6 6.4 0.03 0.15 0.00 61 1005.9
20260507041610 15 238 1.6 6.4 0.03 0.15 0.00 61 1005.9
20260507041044 15 211 0.0 4.8 0.03 0.15 0.00 61 1005.8
20260507040543 15 225 0.0 4.8 0.03 0.15 0.00 61 1005.9
20260507040023 15 198 0.0 3.2 0.03 0.15 0.00 61 1005.9
20260507035516 15 280 1.6 6.4 0.03 0.15 0.15 61 1006.0
20260507035016 15 280 3.2 8.0 0.03 0.15 0.15 61 1005.9
20260507034732 15 230 1.6 8.0 0.00 0.13 0.13 61 1006.1
20260507033958 15 284 3.2 9.7 0.00 0.13 0.13 61 1006.0
20260507033710 15 129 3.2 12.9 0.00 0.13 0.13 61 1006.0
20260507033209 15 205 3.2 14.5 0.00 0.13 0.13 61 1005.9
20260507032439 15 250 3.2 16.1 0.00 0.13 0.13 61 1006.0
20260507032159 15 227 3.2 16.1 0.00 0.13 0.13 61 1005.9
20260507031429 15 209 1.6 16.1 0.00 0.13 0.13 61 1005.8
20260507030922 15 241 1.6 16.1 0.00 0.13 0.13 61 1005.7
20260507030417 15 159 1.6 11.3 0.00 0.13 0.13 61 1005.7
20260507025919 15 221 1.6 9.7 0.00 0.13 0.13 61 1005.8
20260507025417 15 215 1.6 9.7 0.00 0.13 0.13 61 1005.7
20260507024911 15 244 3.2 12.9 0.00 0.13 0.13 61 1005.7
20260507024354 15 165 4.8 22.5 0.00 0.13 0.13 61 1005.7
20260507023848 15 212 1.6 14.5 0.00 0.13 0.13 61 1005.7
20260507023342 15 170 1.6 6.4 0.00 0.13 0.13 61 1005.6
20260507022836 15 209 3.2 16.1 0.00 0.13 0.13 61 1005.7
20260507022330 15 355 3.2 16.1 0.00 0.13 0.13 61 1005.7
20260507021826 15 179 3.2 8.0 0.00 0.13 0.13 61 1005.7
20260507021315 15 220 1.6 8.0 0.00 0.13 0.13 61 1005.7
20260507020817 15 190 1.6 8.0 0.00 0.13 0.13 61 1005.7
20260507020314 15 164 3.2 11.3 0.00 0.13 0.13 61 1005.7
20260507015814 15 246 1.6 11.3 0.00 0.13 0.13 62 1005.9
20260507015259 15 161 1.6 9.7 0.00 0.13 0.13 62 1005.7
20260507014759 15 286 1.6 8.0 0.00 0.13 0.13 62 1005.6
20260507014237 15 248 1.6 8.0 0.00 0.13 0.13 62 1005.8
20260507013732 15 244 1.6 4.8 0.00 0.13 0.13 62 1005.8
20260507013226 15 246 1.6 8.0 0.00 0.13 0.13 62 1005.8
20260507012720 15 196 3.2 11.3 0.00 0.13 0.13 62 1005.6
20260507012215 14 204 1.6 11.3 0.00 0.13 0.13 62 1005.9
20260507011716 15 173 1.6 8.0 0.00 0.13 0.13 62 1005.9
20260507011214 14 212 3.2 16.1 0.00 0.13 0.13 62 1006.0
20260507010930 14 194 3.2 16.1 0.00 0.13 0.13 62 1006.0
20260507010209 14 223 1.6 11.3 0.00 0.13 0.13 62 1006.0
20260507005704 14 211 1.6 14.5 0.00 0.13 0.13 62 1006.1
20260507005204 14 177 1.6 14.5 0.00 0.13 0.13 62 1006.1
20260507004656 14 195 1.6 16.1 0.00 0.13 0.13 62 1006.1
20260507004154 14 134 1.6 16.1 0.00 0.13 0.13 62 1006.0
20260507003654 14 210 1.6 9.7 0.00 0.13 0.13 62 1006.1
20260507003152 14 196 1.6 8.0 0.00 0.13 0.13 62 1006.1
20260507002652 14 144 3.2 11.3 0.00 0.13 0.13 62 1006.1
20260507002152 14 219 4.8 14.5 0.00 0.13 0.13 62 1006.0
20260507001651 14 246 4.8 16.1 0.00 0.13 0.13 62 1005.8
20260507001150 14 238 3.2 16.1 0.00 0.13 0.13 63 1005.9
20260507000650 14 237 3.2 14.5 0.00 0.13 0.13 63 1005.9
20260507000147 14 78 1.6 14.5 0.00 0.13 0.13 63 1006.0
20260506235648 14 238 1.6 11.3 0.00 0.13 0.13 63 1005.9
20260506235410 14 133 3.2 14.5 0.00 0.13 0.13 63 1005.9
20260506234644 14 138 1.6 14.5 0.00 0.13 0.13 63 1005.7
20260506234402 14 243 3.2 14.5 0.00 0.13 0.13 63 1005.9
20260506233638 14 202 3.2 14.5 0.00 0.13 0.13 63 1005.8
20260506233137 14 314 3.2 16.1 0.00 0.13 0.13 63 1005.7
20260506232635 15 194 3.2 16.1 0.00 0.13 0.13 63 1005.6
20260506232127 15 173 1.6 11.3 0.00 0.13 0.13 63 1005.7
20260506231847 15 166 3.2 9.7 0.00 0.13 0.13 64 1005.8
20260506231126 15 171 1.6 11.3 0.00 0.13 0.13 64 1005.7
20260506230628 15 279 3.2 11.3 0.00 0.13 0.13 64 1005.9
20260506230127 15 194 3.2 11.3 0.00 0.13 0.13 64 1005.9
20260506225628 15 128 3.2 11.3 0.00 0.13 0.13 64 1005.9
20260506225116 15 200 3.2 9.7 0.00 0.13 0.13 64 1006.0
20260506224607 15 195 1.6 11.3 0.00 0.13 0.13 65 1006.0
20260506224108 15 117 3.2 11.3 0.03 0.13 0.13 65 1005.9
20260506223555 15 205 3.2 14.5 0.03 0.13 0.13 65 1005.8
20260506223047 15 178 3.2 14.5 0.03 0.13 0.13 66 1005.8
20260506222541 15 200 3.2 11.3 0.03 0.13 0.13 66 1005.8
20260506222035 15 185 1.6 14.5 0.03 0.13 0.13 66 1005.8
20260506221533 15 229 1.6 14.5 0.03 0.13 0.13 67 1005.9
20260506221514 15 117 3.2 14.5 0.05 0.13 0.13 67 1006.0
20260506220741 15 263 3.2 16.1 0.05 0.13 0.13 67 1006.1
20260506220011 15 152 4.8 16.1 0.05 0.13 0.13 67 1006.3
20260506215512 15 204 3.2 16.1 0.05 0.13 0.13 67 1006.3
20260506215011 15 228 3.2 8.0 0.05 0.13 0.13 67 1006.3
20260506214453 15 90 3.2 14.5 0.05 0.13 0.13 67 1006.3
20260506213947 15 195 1.6 14.5 0.03 0.10 0.10 67 1006.2
20260506213703 15 203 3.2 14.5 0.03 0.10 0.10 66 1006.3
20260506212939 15 137 3.2 16.1 0.05 0.10 0.10 66 1006.4
20260506212425 15 181 3.2 16.1 0.05 0.10 0.10 66 1006.5
20260506211919 15 355 3.2 14.5 0.05 0.10 0.10 66 1006.5
20260506211412 15 194 3.2 16.1 0.05 0.10 0.10 66 1006.5
20260506210910 15 210 3.2 16.1 0.03 0.08 0.08 66 1006.7
20260506210400 15 267 3.2 9.7 0.03 0.08 0.08 66 1006.5
20260506205855 16 224 1.6 9.7 0.03 0.08 0.08 65 1006.5
20260506205352 16 140 1.6 8.0 0.03 0.08 0.08 66 1006.6
20260506204849 16 273 1.6 11.3 0.03 0.08 0.08 65 1006.6
20260506204337 16 268 3.2 14.5 0.03 0.08 0.08 64 1006.7
20260506204054 16 261 1.6 16.1 0.05 0.08 0.08 65 1006.8
20260506203325 16 188 3.2 16.1 0.05 0.08 0.08 64 1006.8
20260506202819 16 189 3.2 9.7 0.03 0.05 0.05 64 1006.8
20260506202314 16 15 3.2 11.3 0.03 0.05 0.05 64 1006.9
20260506202033 16 215 1.6 11.3 0.03 0.05 0.05 64 1006.9
20260506201536 16 87 1.6 4.8 0.03 0.05 0.05 64 1006.9
20260506200815 16 126 3.2 17.7 0.05 0.05 0.05 64 1006.8
20260506200315 16 212 4.8 17.7 0.05 0.05 0.05 63 1006.9
20260506195804 16 214 4.8 17.7 0.05 0.05 0.05 63 1006.9
20260506195306 16 261 4.8 19.3 0.05 0.05 0.05 63 1006.9
20260506194805 16 208 6.4 22.5 0.05 0.05 0.05 62 1006.9
20260506194533 16 215 4.8 22.5 0.05 0.05 0.05 61 1006.8
20260506194243 17 216 4.8 19.3 0.03 0.03 0.03 60 1006.9
20260506193744 17 257 6.4 19.3 0.03 0.03 0.03 60 1006.9
20260506192801 17 160 6.4 20.9 0.03 0.03 0.03 59 1007.0
20260506192259 17 222 4.8 20.9 0.03 0.03 0.03 59 1007.1
20260506191801 17 227 3.2 16.1 0.03 0.03 0.03 59 1006.9
20260506191755 17 197 4.8 17.7 0.03 0.03 0.03 59 1007.0
20260506190758 17 128 6.4 24.1 0.00 0.00 0.00 59 1007.0
20260506190522 18 326 6.4 24.1 0.00 0.00 0.00 57 1007.1
20260506185759 18 193 6.4 24.1 0.00 0.00 0.00 57 1007.2
20260506185253 18 196 6.4 20.9 0.00 0.00 0.00 56 1007.1
20260506184755 19 205 6.4 20.9 0.00 0.00 0.00 55 1007.1
20260506184512 19 172 6.4 20.9 0.00 0.00 0.00 55 1007.0
20260506183745 19 211 6.4 25.7 0.00 0.00 0.00 54 1007.0
20260506183245 20 207 6.4 25.7 0.00 0.00 0.00 54 1007.1
20260506182744 20 150 6.4 16.1 0.00 0.00 0.00 54 1007.2
20260506182243 20 246 4.8 16.1 0.00 0.00 0.00 54 1007.2
20260506181741 20 194 4.8 20.9 0.00 0.00 0.00 53 947.9
20260506181245 20 148 6.4 20.9 0.00 0.00 0.00 53 947.9
20260506180742 20 223 8.0 27.4 0.00 0.00 0.00 52 1007.3
20260506180242 21 284 8.0 27.4 0.00 0.00 0.00 52 1007.3
20260506175743 21 220 6.4 20.9 0.00 0.00 0.00 52 769.9
20260506175239 21 246 8.0 20.9 0.00 0.00 0.00 52 1007.3
20260506174739 21 55 6.4 25.7 0.00 0.00 0.00 52 1007.5
20260506174721 21 200 6.4 25.7 0.00 0.00 0.00 52 1007.2
20260506173737 21 229 8.0 27.4 0.00 0.00 0.00 52 1007.2
20260506173457 22 89 9.7 27.4 0.00 0.00 0.00 52 1007.4
20260506172737 22 124 8.0 22.5 0.00 0.00 0.00 52 1007.5
20260506172235 22 192 8.0 22.5 0.00 0.00 0.00 52 1007.7
20260506171737 22 57 9.7 22.5 0.00 0.00 0.00 52 1007.7
20260506171237 22 167 9.7 29.0 0.00 0.00 0.00 52 1007.6
20260506170732 22 254 8.0 29.0 0.00 0.00 0.00 53 1007.6
20260506170229 22 105 6.4 20.9 0.00 0.00 0.00 53 1007.6
20260506165730 22 68 8.0 27.4 0.00 0.00 0.00 53 1007.6
20260506165224 22 185 9.7 27.4 0.00 0.00 0.00 53 1007.7
20260506164942 22 155 8.0 25.7 0.00 0.00 0.00 53 1007.6
20260506164212 22 222 6.4 25.7 0.00 0.00 0.00 53 1007.7
20260506163706 22 141 6.4 20.9 0.00 0.00 0.00 53 1007.9
20260506163426 22 192 8.0 27.4 0.00 0.00 0.00 53 1007.9
20260506162654 22 205 6.4 27.4 0.00 0.00 0.00 53 889.3
20260506162148 22 211 6.4 24.1 0.00 0.00 0.00 53 948.8
20260506161640 22 281 9.7 24.1 0.00 0.00 0.00 53 1008.3
20260506161135 22 157 8.0 30.6 0.00 0.00 0.00 53 1008.3
20260506160629 22 238 6.4 30.6 0.00 0.00 0.00 53 1008.5
20260506160123 22 188 8.0 29.0 0.00 0.00 0.00 53 1008.4
20260506155616 22 227 9.7 29.0 0.00 0.00 0.00 53 1008.4
20260506155110 22 184 8.0 20.9 0.00 0.00 0.00 54 1008.5
20260506154603 22 223 6.4 32.2 0.00 0.00 0.00 54 1008.5
20260506154057 22 190 8.0 32.2 0.00 0.00 0.00 54 1008.6
20260506153555 22 178 8.0 22.5 0.00 0.00 0.00 55 1008.6
20260506153045 22 167 6.4 24.1 0.00 0.00 0.00 55 1008.7
20260506152033 22 152 8.0 22.5 0.00 0.00 0.00 55 1009.0
20260506151526 22 153 6.4 22.5 0.00 0.00 0.00 55 1009.0
20260506151020 22 202 6.4 17.7 0.00 0.00 0.00 56 1009.0
20260506150515 21 351 6.4 17.7 0.00 0.00 0.00 56 1009.0
20260506150009 21 202 4.8 24.1 0.00 0.00 0.00 56 1009.0
20260506145502 21 192 6.4 24.1 0.00 0.00 0.00 55 1009.0
20260506144956 21 213 4.8 24.1 0.00 0.00 0.00 55 1008.9
20260506144452 21 210 6.4 19.3 0.00 0.00 0.00 55 1009.0
20260506144209 21 150 8.0 27.4 0.00 0.00 0.00 55 1009.0
20260506143439 21 219 9.7 27.4 0.00 0.00 0.00 55 1009.0
20260506142933 21 165 8.0 29.0 0.00 0.00 0.00 55 1008.9
20260506142428 21 224 8.0 29.0 0.00 0.00 0.00 56 1008.8
20260506141921 21 223 8.0 25.7 0.00 0.00 0.00 56 1008.7
20260506141636 21 207 6.4 25.7 0.00 0.00 0.00 57 1008.9
20260506140909 21 154 6.4 16.1 0.00 0.00 0.00 57 1009.0
20260506140403 21 157 6.4 19.3 0.00 0.00 0.00 57 1009.0
20260506135857 21 200 8.0 24.1 0.00 0.00 0.00 57 1009.0
20260506135353 21 225 4.8 24.1 0.00 0.00 0.00 57 1009.1
20260506134853 21 236 4.8 20.9 0.00 0.00 0.00 58 1009.1
20260506134615 21 55 4.8 17.7 0.00 0.00 0.00 58 1008.9
20260506133852 21 252 4.8 17.7 0.00 0.00 0.00 59 1009.0
20260506133352 20 264 6.4 22.5 0.00 0.00 0.00 59 1009.1
20260506133112 20 214 8.0 22.5 0.00 0.00 0.00 58 1009.4
20260506132349 20 213 6.4 20.9 0.00 0.00 0.00 59 1009.7
20260506131851 20 320 4.8 14.5 0.00 0.00 0.00 59 1009.6
20260506131348 19 219 4.8 20.9 0.00 0.00 0.00 59 1009.5
20260506130848 19 211 4.8 20.9 0.00 0.00 0.00 59 1009.7
20260506130349 19 147 4.8 16.1 0.00 0.00 0.00 59 1009.5
20260506125823 18 261 4.8 16.1 0.00 0.00 0.00 59 1009.5
20260506125540 18 159 6.4 16.1 0.00 0.00 0.00 59 1009.5
20260506124823 18 194 4.8 17.7 0.00 0.00 0.00 59 1009.8
20260506124326 18 269 4.8 20.9 0.00 0.00 0.00 59 1009.8
20260506123821 17 240 4.8 20.9 0.00 0.00 0.00 60 1009.8
20260506123550 17 223 4.8 19.3 0.00 0.00 0.00 60 1009.7
20260506122822 17 139 4.8 24.1 0.00 0.00 0.00 59 1009.7
20260506122318 17 263 4.8 24.1 0.00 0.00 0.00 59 1009.8
20260506121818 17 213 4.8 22.5 0.00 0.00 0.00 59 1009.8
20260506121318 17 239 3.2 16.1 0.00 0.00 0.00 59 1009.6
20260506120817 17 40 4.8 17.7 0.00 0.00 0.00 59 1009.7
20260506120317 16 212 4.8 17.7 0.00 0.00 0.00 59 1009.6
20260506120040 16 123 3.2 12.9 0.00 0.00 0.00 59 1009.9
20260506115538 16 261 3.2 11.3 0.00 0.00 0.00 59 1010.0
20260506114816 16 205 3.2 11.3 0.00 0.00 0.00 58 1010.0
20260506114534 16 53 1.6 8.0 0.00 0.00 0.00 58 1010.0
20260506114259 16 227 3.2 12.9 0.00 0.00 0.00 58 1010.1
20260506113522 16 140 1.6 12.9 0.00 0.00 0.00 57 1010.3
20260506112758 16 251 3.2 11.3 0.00 0.00 0.00 57 1010.3
20260506112301 16 196 3.2 11.3 0.00 0.00 0.00 57 1010.2
20260506111735 16 114 1.6 9.7 0.00 0.00 0.00 57 1010.1
20260506111235 16 148 1.6 8.0 0.00 0.00 0.00 56 1010.0
20260506110729 15 235 3.2 9.7 0.00 0.00 0.00 56 1010.0
20260506110223 15 174 4.8 11.3 0.00 0.00 0.00 55 1010.0
20260506105717 15 16 3.2 11.3 0.00 0.00 0.00 54 1009.8
20260506105212 15 124 3.2 9.7 0.00 0.00 0.00 53 1009.7
20260506104714 15 197 3.2 11.3 0.00 0.00 0.00 52 1009.8
20260506104414 15 190 1.6 11.3 0.00 0.00 0.00 50 1009.8
20260506103653 15 223 1.6 8.0 0.00 0.00 0.00 48 1009.8
20260506103141 15 242 1.6 9.7 0.00 0.00 0.00 48 1009.8
20260506102635 15 161 1.6 9.7 0.00 0.00 0.00 47 1009.9
20260506102128 15 212 1.6 8.0 0.00 0.00 0.00 47 1009.7
20260506101847 15 183 3.2 16.1 0.00 0.00 0.00 47 1009.7
20260506101119 15 171 3.2 16.1 0.00 0.00 0.00 47 1009.7
20260506100613 15 195 1.6 8.0 0.00 0.00 0.00 47 1009.6
20260506100321 15 178 3.2 20.9 0.00 0.00 0.00 47 1009.5
20260506095600 15 200 3.2 20.9 0.00 0.00 0.00 47 1009.5
20260506095054 14 214 1.6 9.7 0.00 0.00 0.00 47 1009.5
20260506094547 15 143 1.6 6.4 0.00 0.00 0.00 47 1009.5
20260506094041 15 194 1.6 14.5 0.00 0.00 0.00 47 1009.3
20260506093535 15 106 3.2 14.5 0.00 0.00 0.00 47 1009.3
20260506093253 15 153 3.2 11.3 0.00 0.00 0.00 47 1009.3
20260506092523 15 281 3.2 11.3 0.00 0.00 0.00 47 1009.4
20260506092019 15 217 3.2 9.7 0.00 0.00 0.00 47 1009.4
20260506091728 15 158 3.2 9.7 0.00 0.00 0.00 47 1009.4
20260506091005 15 280 3.2 17.7 0.00 0.00 0.00 47 1009.5
20260506090501 15 188 3.2 17.7 0.00 0.00 0.00 47 1009.4
20260506090217 15 163 3.2 16.1 0.00 0.00 0.00 47 1009.4
20260506085456 15 189 3.2 16.1 0.00 0.00 0.00 46 1009.5
20260506084953 15 107 1.6 16.1 0.00 0.00 0.00 46 1009.5
20260506084456 15 257 1.6 11.3 0.00 0.00 0.00 46 1009.7
20260506084207 15 211 3.2 14.5 0.00 0.00 0.00 46 831.0
20260506083443 15 146 4.8 19.3 0.00 0.00 0.00 46 652.4
20260506082942 15 191 4.8 19.3 0.00 0.00 0.00 46 1009.5
20260506082443 15 216 4.8 17.7 0.00 0.00 0.00 46 1009.7
20260506081936 15 207 6.4 30.6 0.00 0.00 0.00 46 1009.6
20260506081437 15 219 6.4 30.6 0.00 0.00 0.00 46 1009.7
20260506080933 15 215 4.8 17.7 0.00 0.00 0.00 46 950.0
20260506080652 15 198 4.8 20.9 0.00 0.00 0.00 46 890.5